When you browse on this site, cookies collect data to enhance your experience and personalize the content and advertising you see.
Visit our Privacy Policy to learn more. By continuing to use the site, you agree to this use of cookies and data.
  • In Hungary
  • List of Countries
  • For 7 days
  • Water Temperature
  • Satellite Maps
  • Weather Map
  • News
  • Weather Widgets
  • user-avatar
    Login

    Hourly Weather Castelfidardo

    Today, 16 January, Wednesday

    Time Temperature Precipitation Wind Pressure Humidity
    00:00 +4°C° 0 mm 3 mps 754 mmHg 53%
    01:00 +4°C° 0 mm 3 mps 754 mmHg 52%
    02:00 +4°C° 0 mm 3 mps 754 mmHg 51%
    03:00 +4°C° 0 mm 3 mps 754 mmHg 51%
    04:00 +4°C° 0 mm 3 mps 753 mmHg 51%
    05:00 +4°C° 0 mm 3 mps 753 mmHg 51%
    06:00 +3°C° 0 mm 3 mps 754 mmHg 51%
    07:00 +4°C° 0 mm 2 mps 754 mmHg 52%
    08:00 +6°C° 0 mm 2 mps 754 mmHg 53%
    09:00 +7°C° 0 mm 2 mps 754 mmHg 54%
    10:00 +8°C° 0 mm 2 mps 754 mmHg 55%
    11:00 +10°C° 0 mm 2 mps 754 mmHg 51%
    12:00 +12°C° 0 mm 2 mps 754 mmHg 47%
    13:00 +14°C° 0 mm 2 mps 754 mmHg 45%
    14:00 +13°C° 0 mm 2 mps 754 mmHg 49%
    15:00 +13°C° 0 mm 2 mps 754 mmHg 53%
    16:00 +12°C° 0 mm 2 mps 753 mmHg 58%
    17:00 +10°C° 0 mm 2 mps 753 mmHg 62%
    18:00 +9°C° 0 mm 2 mps 753 mmHg 66%
    19:00 +8°C° 0 mm 2 mps 753 mmHg 71%
    20:00 +7°C° 0 mm 2 mps 753 mmHg 73%
    21:00 +7°C° 0 mm 2 mps 753 mmHg 74%
    22:00 +6°C° 0 mm 2 mps 753 mmHg 76%
    23:00 +6°C° 0 mm 2 mps 753 mmHg 77%

    Tomorrow, 17 January, Thursday

    Time Temperature Precipitation Wind Pressure Humidity
    00:00 +6°C° 0 mm 2 mps 753 mmHg 78%
    01:00 +5°C° 0 mm 2 mps 752 mmHg 79%
    02:00 +5°C° 0 mm 2 mps 752 mmHg 79%
    03:00 +5°C° 0 mm 2 mps 752 mmHg 78%
    04:00 +5°C° 0 mm 2 mps 752 mmHg 78%
    05:00 +5°C° 0 mm 2 mps 751 mmHg 76%
    06:00 +5°C° 0 mm 2 mps 751 mmHg 74%
    07:00 +5°C° 0 mm 2 mps 751 mmHg 71%
    08:00 +6°C° 0 mm 2 mps 751 mmHg 68%
    09:00 +7°C° 0 mm 2 mps 751 mmHg 64%
    10:00 +9°C° 0 mm 2 mps 751 mmHg 60%
    11:00 +10°C° 0 mm 3 mps 750 mmHg 60%
    12:00 +11°C° 0 mm 3 mps 750 mmHg 59%
    13:00 +11°C° 0 mm 3 mps 749 mmHg 59%
    14:00 +11°C° 0 mm 3 mps 749 mmHg 62%
    15:00 +11°C° 0 mm 3 mps 749 mmHg 65%
    16:00 +10°C° 0 mm 3 mps 749 mmHg 68%
    17:00 +10°C° 0 mm 3 mps 748 mmHg 70%
    18:00 +10°C° 0 mm 3 mps 748 mmHg 73%
    19:00 +9°C° 0 mm 2 mps 748 mmHg 75%
    20:00 +9°C° 0 mm 2 mps 748 mmHg 77%
    21:00 +8°C° 0 mm 2 mps 748 mmHg 78%
    22:00 +8°C° 0 mm 2 mps 747 mmHg 80%
    23:00 +8°C° 0 mm 2 mps 747 mmHg 81%

    Day after tomorrow, 18 January, Friday

    Time Temperature Precipitation Wind Pressure Humidity
    00:00 +8°C° 0 mm 2 mps 747 mmHg 82%
    01:00 +7°C° 0 mm 2 mps 747 mmHg 83%
    02:00 +7°C° 0 mm 3 mps 747 mmHg 83%
    03:00 +7°C° 0 mm 3 mps 746 mmHg 83%
    04:00 +7°C° 0 mm 3 mps 746 mmHg 83%
    05:00 +7°C° 0 mm 3 mps 746 mmHg 83%
    06:00 +6°C° 0 mm 2 mps 746 mmHg 83%
    07:00 +6°C° 0 mm 2 mps 746 mmHg 83%
    08:00 +8°C° 0 mm 1 mps 747 mmHg 79%
    09:00 +10°C° 0 mm 1 mps 747 mmHg 74%
    10:00 +11°C° 0 mm 1 mps 747 mmHg 70%
    11:00 +12°C° 0 mm 1 mps 747 mmHg 65%
    12:00 +13°C° 0 mm 1 mps 747 mmHg 61%
    13:00 +14°C° 0 mm 1 mps 748 mmHg 57%
    14:00 +13°C° 0 mm 1 mps 748 mmHg 61%
    15:00 +13°C° 0 mm 2 mps 748 mmHg 66%
    16:00 +12°C° 0 mm 2 mps 748 mmHg 70%
    17:00 +10°C° 0.2 mm 2 mps 748 mmHg 75%
    18:00 +9°C° 0.2 mm 2 mps 748 mmHg 80%
    19:00 +9°C° 0.2 mm 2 mps 748 mmHg 85%
    20:00 +9°C° 0.5 mm 2 mps 748 mmHg 85%
    21:00 +9°C° 0.5 mm 2 mps 748 mmHg 86%
    22:00 +9°C° 0.5 mm 2 mps 749 mmHg 87%
    23:00 +8°C° 0.4 mm 2 mps 748 mmHg 87%

    19 January, Saturday

    Time Temperature Precipitation Wind Pressure Humidity
    00:00 +8°C° 0.4 mm 2 mps 748 mmHg 88%
    01:00 +9°C° 0.4 mm 1 mps 748 mmHg 89%
    02:00 +8°C° 0.1 mm 2 mps 748 mmHg 87%
    03:00 +8°C° 0.1 mm 2 mps 748 mmHg 85%
    04:00 +8°C° 0.1 mm 2 mps 747 mmHg 84%
    05:00 +7°C° 0 mm 3 mps 747 mmHg 84%
    06:00 +7°C° 0 mm 3 mps 747 mmHg 84%
    07:00 +5°C° 0 mm 3 mps 747 mmHg 85%
    08:00 +7°C° 0 mm 3 mps 748 mmHg 80%
    09:00 +8°C° 0 mm 3 mps 748 mmHg 76%
    10:00 +9°C° 0 mm 3 mps 748 mmHg 72%
    11:00 +9°C° 0 mm 3 mps 748 mmHg 68%
    12:00 +10°C° 0 mm 4 mps 748 mmHg 64%
    13:00 +11°C° 0 mm 4 mps 747 mmHg 61%
    14:00 +10°C° 0 mm 4 mps 747 mmHg 65%
    15:00 +10°C° 0 mm 4 mps 747 mmHg 69%
    16:00 +8°C° 0 mm 5 mps 747 mmHg 73%
    17:00 +7°C° 0.1 mm 5 mps 747 mmHg 77%
    18:00 +7°C° 0.1 mm 4 mps 748 mmHg 82%
    19:00 +6°C° 0.1 mm 4 mps 748 mmHg 87%
    20:00 +6°C° 0.1 mm 4 mps 748 mmHg 88%
    21:00 +7°C° 0.1 mm 3 mps 748 mmHg 88%
    22:00 +7°C° 0.1 mm 2 mps 748 mmHg 89%
    23:00 +7°C° 0.1 mm 2 mps 748 mmHg 90%

    20 January, Sunday

    Time Temperature Precipitation Wind Pressure Humidity
    00:00 +6°C° 0.1 mm 2 mps 748 mmHg 91%
    01:00 +6°C° 0.1 mm 2 mps 748 mmHg 92%
    02:00 +6°C° 0 mm 2 mps 748 mmHg 92%
    03:00 +6°C° 0 mm 2 mps 748 mmHg 93%
    04:00 +5°C° 0 mm 2 mps 748 mmHg 93%
    05:00 +5°C° 0 mm 2 mps 748 mmHg 93%
    06:00 +5°C° 0 mm 2 mps 748 mmHg 92%
    07:00 +5°C° 0 mm 2 mps 748 mmHg 92%
    08:00 +6°C° 0 mm 2 mps 749 mmHg 88%
    09:00 +7°C° 0 mm 2 mps 749 mmHg 84%
    10:00 +8°C° 0 mm 1 mps 749 mmHg 80%
    11:00 +9°C° 0 mm 1 mps 749 mmHg 77%
    12:00 +10°C° 0 mm 1 mps 749 mmHg 73%
    13:00 +10°C° 0 mm 1 mps 749 mmHg 70%
    14:00 +10°C° 0 mm 1 mps 749 mmHg 73%
    15:00 +9°C° 0 mm 2 mps 748 mmHg 75%
    16:00 +8°C° 0 mm 2 mps 748 mmHg 78%
    17:00 +9°C° 0 mm 1 mps 749 mmHg 81%
    18:00 +8°C° 0 mm 1 mps 749 mmHg 85%
    19:00 +8°C° 0 mm 1 mps 749 mmHg 88%
    20:00 +7°C° 0.1 mm 0 mps 749 mmHg 89%
    21:00 +7°C° 0.1 mm 0 mps 749 mmHg 90%
    22:00 +6°C° 0.1 mm 0 mps 749 mmHg 90%
    23:00 +7°C° 0.6 mm 0 mps 749 mmHg 91%

    21 January, Monday

    Time Temperature Precipitation Wind Pressure Humidity
    00:00 +8°C° 0.6 mm 1 mps 749 mmHg 92%
    01:00 +8°C° 0.6 mm 1 mps 749 mmHg 93%
    02:00 +7°C° 2.1 mm 2 mps 749 mmHg 94%
    03:00 +7°C° 2.1 mm 3 mps 748 mmHg 94%
    04:00 +6°C° 2.1 mm 4 mps 748 mmHg 95%
    05:00 +6°C° 1.8 mm 4 mps 748 mmHg 93%
    06:00 +6°C° 1.8 mm 5 mps 748 mmHg 92%
    07:00 +6°C° 1.8 mm 5 mps 748 mmHg 91%
    08:00 +5°C° 1.9 mm 6 mps 748 mmHg 91%
    09:00 +5°C° 1.9 mm 6 mps 748 mmHg 92%
    10:00 +5°C° 1.9 mm 7 mps 748 mmHg 92%
    11:00 +5°C° 2.5 mm 7 mps 747 mmHg 92%
    12:00 +5°C° 2.5 mm 7 mps 747 mmHg 92%
    13:00 +4°C° 2.5 mm 7 mps 746 mmHg 91%
    14:00 +4°C° 2.3 mm 8 mps 746 mmHg 92%
    15:00 +4°C° 2.3 mm 8 mps 746 mmHg 92%
    16:00 +4°C° 2.3 mm 8 mps 746 mmHg 92%
    17:00 +4°C° 3.2 mm 7 mps 745 mmHg 93%
    18:00 +4°C° 3.2 mm 7 mps 745 mmHg 94%
    19:00 +4°C° 3.2 mm 6 mps 745 mmHg 95%
    20:00 +4°C° 3.8 mm 6 mps 744 mmHg 96%
    21:00 +4°C° 3.8 mm 6 mps 744 mmHg 96%
    22:00 +4°C° 3.8 mm 6 mps 744 mmHg 97%
    23:00 +4°C° 4.2 mm 6 mps 743 mmHg 96%
    Show more